Time,TemperatureF,DewpointF,PressureIn,WindDirection,WindDirectionDegrees,WindSpeedMPH,WindSpeedGustMPH,Humidity,HourlyPrecipIn,Conditions,Clouds,dailyrainin,SoftwareType,DateUTC
2013-02-10 00:00:00,35.8,24.5,30.22,ENE,77,0.0,0.0,63,0.00,,,0.00,VWS V14.01,2013-02-10 05:00:00,
2013-02-10 00:05:00,35.9,24.5,30.22,ENE,77,0.0,0.0,63,0.00,,,0.00,VWS V14.01,2013-02-10 05:05:00,
2013-02-10 00:10:00,35.7,24.7,30.23,East,81,0.0,0.0,64,0.00,,,0.00,VWS V14.01,2013-02-10 05:10:00,
2013-02-10 00:15:00,35.6,24.3,30.23,East,82,0.0,0.0,63,0.00,,,0.00,VWS V14.01,2013-02-10 05:15:00,
2013-02-10 00:20:00,35.4,24.1,30.23,East,82,0.0,1.0,63,0.00,,,0.00,VWS V14.01,2013-02-10 05:20:00,
2013-02-10 00:25:00,35.3,24.4,30.23,East,83,0.0,0.0,64,0.00,,,0.00,VWS V14.01,2013-02-10 05:25:00,
2013-02-10 00:30:00,35.2,24.3,30.23,East,83,0.0,0.0,64,0.00,,,0.00,VWS V14.01,2013-02-10 05:30:00,
2013-02-10 00:35:00,35.1,24.5,30.22,East,83,0.0,0.0,65,0.00,,,0.00,VWS V14.01,2013-02-10 05:35:00,
2013-02-10 00:40:00,35.1,25.3,30.22,East,83,0.0,0.0,67,0.00,,,0.00,VWS V14.01,2013-02-10 05:40:00,
2013-02-10 00:45:00,34.9,24.7,30.22,East,84,0.0,0.0,66,0.00,,,0.00,VWS V14.01,2013-02-10 05:45:00,
2013-02-10 00:50:00,34.7,24.9,30.22,East,84,0.0,0.0,67,0.00,,,0.00,VWS V14.01,2013-02-10 05:50:00,
2013-02-10 00:55:00,34.7,25.2,30.22,East,84,0.0,0.0,68,0.00,,,0.00,VWS V14.01,2013-02-10 05:55:00,
2013-02-10 01:00:00,34.6,25.1,30.22,East,84,0.0,0.0,68,0.00,,,0.00,VWS V14.01,2013-02-10 06:00:00,
2013-02-10 01:05:00,34.5,25.4,30.21,East,84,0.0,0.0,69,0.00,,,0.00,VWS V14.01,2013-02-10 06:05:00,
2013-02-10 01:10:00,34.6,25.5,30.22,East,84,0.0,0.0,69,0.00,,,0.00,VWS V14.01,2013-02-10 06:10:00,
2013-02-10 01:15:00,34.6,25.8,30.22,East,84,0.0,0.0,70,0.00,,,0.00,VWS V14.01,2013-02-10 06:15:00,
2013-02-10 01:20:00,34.6,25.5,30.22,East,84,0.0,0.0,69,0.00,,,0.00,VWS V14.01,2013-02-10 06:20:00,
2013-02-10 01:25:00,34.7,25.9,30.22,East,84,0.0,0.0,70,0.00,,,0.00,VWS V14.01,2013-02-10 06:25:00,
2013-02-10 01:30:00,34.9,26.5,30.22,East,84,0.0,0.0,71,0.00,,,0.00,VWS V14.01,2013-02-10 06:30:00,
2013-02-10 01:35:00,34.9,26.1,30.22,East,84,0.0,0.0,70,0.00,,,0.00,VWS V14.01,2013-02-10 06:35:00,
2013-02-10 01:40:00,35.0,26.6,30.22,East,84,0.0,0.0,71,0.00,,,0.00,VWS V14.01,2013-02-10 06:40:00,
2013-02-10 01:45:00,35.2,26.8,30.22,East,84,0.0,0.0,71,0.00,,,0.00,VWS V14.01,2013-02-10 06:45:00,
2013-02-10 01:50:00,35.3,26.9,30.22,East,84,0.0,0.0,71,0.00,,,0.00,VWS V14.01,2013-02-10 06:50:00,
2013-02-10 01:55:00,35.3,27.2,30.23,East,84,0.0,0.0,72,0.00,,,0.00,VWS V14.01,2013-02-10 06:55:00,
2013-02-10 02:00:00,35.4,27.6,30.23,East,84,0.0,0.0,73,0.00,,,0.00,VWS V14.01,2013-02-10 07:00:00,
2013-02-10 02:05:00,35.4,27.6,30.22,East,84,0.0,0.0,73,0.00,,,0.00,VWS V14.01,2013-02-10 07:05:00,
2013-02-10 02:10:00,35.4,27.3,30.22,East,84,0.0,0.0,72,0.00,,,0.00,VWS V14.01,2013-02-10 07:10:00,
2013-02-10 02:15:00,35.4,27.3,30.22,East,84,0.0,0.0,72,0.00,,,0.00,VWS V14.01,2013-02-10 07:15:00,
2013-02-10 02:20:00,35.5,27.4,30.22,East,84,0.0,0.0,72,0.00,,,0.00,VWS V14.01,2013-02-10 07:20:00,
2013-02-10 02:25:00,35.5,27.4,30.22,East,84,0.0,0.0,72,0.00,,,0.00,VWS V14.01,2013-02-10 07:25:00,
2013-02-10 02:30:00,35.6,27.5,30.23,East,84,0.0,0.0,72,0.00,,,0.00,VWS V14.01,2013-02-10 07:30:00,
2013-02-10 02:35:00,35.6,27.8,30.23,East,84,0.0,0.0,73,0.00,,,0.00,VWS V14.01,2013-02-10 07:35:00,
2013-02-10 02:40:00,35.7,27.9,30.22,East,84,0.0,0.0,73,0.00,,,0.00,VWS V14.01,2013-02-10 07:40:00,
2013-02-10 02:45:00,35.6,28.1,30.22,East,84,2.0,2.0,74,0.00,,,0.00,VWS V14.01,2013-02-10 07:45:00,
2013-02-10 02:50:00,35.6,28.1,30.22,East,84,0.0,0.0,74,0.00,,,0.00,VWS V14.01,2013-02-10 07:50:00,
2013-02-10 02:55:00,35.5,28.0,30.22,East,84,0.0,0.0,74,0.00,,,0.00,VWS V14.01,2013-02-10 07:55:00,
2013-02-10 03:00:00,35.5,28.0,30.22,East,84,0.0,0.0,74,0.00,,,0.00,VWS V14.01,2013-02-10 08:00:00,
2013-02-10 03:05:00,35.5,28.0,30.22,East,84,0.0,0.0,74,0.00,,,0.00,VWS V14.01,2013-02-10 08:05:00,
2013-02-10 03:10:00,35.5,28.0,30.22,East,84,0.0,0.0,74,0.00,,,0.00,VWS V14.01,2013-02-10 08:10:00,
2013-02-10 03:15:00,35.5,28.0,30.22,East,84,0.0,0.0,74,0.00,,,0.00,VWS V14.01,2013-02-10 08:15:00,
2013-02-10 03:20:00,35.6,28.1,30.22,East,84,0.0,0.0,74,0.00,,,0.00,VWS V14.01,2013-02-10 08:20:00,
2013-02-10 03:25:00,35.6,28.1,30.22,East,84,0.0,0.0,74,0.00,,,0.00,VWS V14.01,2013-02-10 08:25:00,
2013-02-10 03:30:00,35.6,28.1,30.22,East,84,0.0,0.0,74,0.00,,,0.00,VWS V14.01,2013-02-10 08:30:00,
2013-02-10 03:35:00,35.6,28.1,30.22,East,84,1.0,2.0,74,0.00,,,0.00,VWS V14.01,2013-02-10 08:35:00,
2013-02-10 03:40:00,35.6,28.1,30.23,SSW,203,0.0,1.0,74,0.00,,,0.00,VWS V14.01,2013-02-10 08:40:00,
2013-02-10 03:45:00,35.7,28.6,30.22,SSW,203,0.0,0.0,75,0.00,,,0.00,VWS V14.01,2013-02-10 08:45:00,
2013-02-10 03:50:00,35.7,28.2,30.22,SSW,203,0.0,0.0,74,0.00,,,0.00,VWS V14.01,2013-02-10 08:50:00,
2013-02-10 03:55:00,35.7,28.6,30.22,SSW,203,0.0,0.0,75,0.00,,,0.00,VWS V14.01,2013-02-10 08:55:00,
2013-02-10 04:00:00,35.6,28.5,30.22,South,190,0.0,0.0,75,0.00,,,0.00,VWS V14.01,2013-02-10 09:00:00,
2013-02-10 04:05:00,35.6,28.5,30.22,South,190,0.0,0.0,75,0.00,,,0.00,VWS V14.01,2013-02-10 09:05:00,
2013-02-10 04:10:00,35.5,28.4,30.21,South,190,0.0,0.0,75,0.00,,,0.00,VWS V14.01,2013-02-10 09:10:00,
2013-02-10 04:15:00,35.5,28.4,30.21,South,190,0.0,0.0,75,0.00,,,0.00,VWS V14.01,2013-02-10 09:15:00,
2013-02-10 04:20:00,35.5,28.4,30.22,South,190,0.0,0.0,75,0.00,,,0.00,VWS V14.01,2013-02-10 09:20:00,
2013-02-10 04:25:00,35.6,28.8,30.22,South,190,0.0,0.0,76,0.00,,,0.00,VWS V14.01,2013-02-10 09:25:00,
2013-02-10 04:30:00,35.6,28.8,30.22,WSW,238,0.0,2.0,76,0.00,,,0.00,VWS V14.01,2013-02-10 09:30:00,
2013-02-10 04:35:00,35.6,28.8,30.22,WSW,238,0.0,0.0,76,0.00,,,0.00,VWS V14.01,2013-02-10 09:35:00,
2013-02-10 04:40:00,35.5,28.4,30.22,WSW,238,0.0,0.0,75,0.00,,,0.00,VWS V14.01,2013-02-10 09:40:00,
2013-02-10 04:45:00,35.7,29.5,30.22,East,87,0.0,2.0,78,0.00,,,0.00,VWS V14.01,2013-02-10 09:45:00,
2013-02-10 04:50:00,35.7,29.2,30.22,East,87,0.0,0.0,77,0.00,,,0.00,VWS V14.01,2013-02-10 09:50:00,
2013-02-10 04:55:00,35.7,29.2,30.23,East,87,0.0,2.0,77,0.00,,,0.00,VWS V14.01,2013-02-10 09:55:00,
2013-02-10 05:00:00,35.7,28.9,30.22,East,87,0.0,0.0,76,0.00,,,0.00,VWS V14.01,2013-02-10 10:00:00,
2013-02-10 05:05:00,35.6,29.1,30.22,East,87,0.0,0.0,77,0.00,,,0.00,VWS V14.01,2013-02-10 10:05:00,
2013-02-10 05:10:00,35.6,29.1,30.22,East,87,0.0,0.0,77,0.00,,,0.00,VWS V14.01,2013-02-10 10:10:00,
2013-02-10 05:15:00,35.5,29.0,30.22,East,87,0.0,0.0,77,0.00,,,0.00,VWS V14.01,2013-02-10 10:15:00,
2013-02-10 05:20:00,35.4,28.9,30.22,East,87,0.0,0.0,77,0.00,,,0.00,VWS V14.01,2013-02-10 10:20:00,
2013-02-10 05:25:00,35.3,28.8,30.22,East,87,0.0,0.0,77,0.00,,,0.00,VWS V14.01,2013-02-10 10:25:00,
2013-02-10 05:30:00,35.3,28.8,30.22,East,87,0.0,0.0,77,0.00,,,0.00,VWS V14.01,2013-02-10 10:30:00,
2013-02-10 05:35:00,35.2,28.4,30.22,East,87,0.0,0.0,76,0.00,,,0.00,VWS V14.01,2013-02-10 10:35:00,
2013-02-10 05:40:00,35.3,28.5,30.22,East,87,0.0,0.0,76,0.00,,,0.00,VWS V14.01,2013-02-10 10:40:00,
2013-02-10 05:45:00,35.3,28.5,30.22,East,87,0.0,0.0,76,0.00,,,0.00,VWS V14.01,2013-02-10 10:45:00,
2013-02-10 05:50:00,35.3,28.5,30.22,East,87,0.0,0.0,76,0.00,,,0.00,VWS V14.01,2013-02-10 10:50:00,
2013-02-10 05:55:00,35.4,28.9,30.22,East,87,0.0,0.0,77,0.00,,,0.00,VWS V14.01,2013-02-10 10:55:00,
2013-02-10 06:00:00,35.5,29.0,30.22,East,87,0.0,0.0,77,0.00,,,0.00,VWS V14.01,2013-02-10 11:00:00,
2013-02-10 06:05:00,35.5,28.7,30.23,East,87,0.0,0.0,76,0.00,,,0.00,VWS V14.01,2013-02-10 11:05:00,
2013-02-10 06:10:00,35.5,28.7,30.23,East,87,0.0,0.0,76,0.00,,,0.00,VWS V14.01,2013-02-10 11:10:00,
2013-02-10 06:15:00,35.5,28.7,30.23,East,87,0.0,0.0,76,0.00,,,0.00,VWS V14.01,2013-02-10 11:15:00,
2013-02-10 06:20:00,35.5,28.7,30.23,East,87,0.0,0.0,76,0.00,,,0.00,VWS V14.01,2013-02-10 11:20:00,
2013-02-10 06:25:00,35.5,28.7,30.23,East,87,0.0,0.0,76,0.00,,,0.00,VWS V14.01,2013-02-10 11:25:00,
2013-02-10 06:30:00,35.5,28.7,30.23,East,87,0.0,0.0,76,0.00,,,0.00,VWS V14.01,2013-02-10 11:30:00,
2013-02-10 06:35:00,35.6,28.8,30.23,East,87,0.0,0.0,76,0.00,,,0.00,VWS V14.01,2013-02-10 11:35:00,
2013-02-10 06:40:00,35.5,28.7,30.23,East,87,2.0,2.0,76,0.00,,,0.00,VWS V14.01,2013-02-10 11:40:00,
2013-02-10 06:45:00,35.5,28.7,30.23,East,87,0.0,0.0,76,0.00,,,0.00,VWS V14.01,2013-02-10 11:45:00,
2013-02-10 06:50:00,35.4,28.9,30.23,East,87,1.0,2.0,77,0.00,,,0.00,VWS V14.01,2013-02-10 11:50:00,
2013-02-10 06:55:00,35.5,29.0,30.23,East,87,0.0,0.0,77,0.00,,,0.00,VWS V14.01,2013-02-10 11:55:00,
2013-02-10 07:00:00,35.4,28.9,30.23,SSW,196,2.0,2.0,77,0.00,,,0.00,VWS V14.01,2013-02-10 12:00:00,
2013-02-10 07:05:00,35.5,29.3,30.23,SSW,197,0.0,0.0,78,0.00,,,0.00,VWS V14.01,2013-02-10 12:05:00,
2013-02-10 07:10:00,35.4,28.9,30.23,SSW,197,0.0,0.0,77,0.00,,,0.00,VWS V14.01,2013-02-10 12:10:00,
2013-02-10 07:15:00,35.4,28.9,30.23,SSW,197,0.0,0.0,77,0.00,,,0.00,VWS V14.01,2013-02-10 12:15:00,
2013-02-10 07:20:00,35.4,28.9,30.23,SSW,197,0.0,0.0,77,0.00,,,0.00,VWS V14.01,2013-02-10 12:20:00,
2013-02-10 07:25:00,35.4,29.2,30.23,SSW,197,0.0,0.0,78,0.00,,,0.00,VWS V14.01,2013-02-10 12:25:00,
2013-02-10 07:30:00,35.5,29.0,30.23,SSW,197,0.0,0.0,77,0.00,,,0.00,VWS V14.01,2013-02-10 12:30:00,
2013-02-10 07:35:00,35.5,29.0,30.23,SSW,197,0.0,0.0,77,0.00,,,0.00,VWS V14.01,2013-02-10 12:35:00,
2013-02-10 07:40:00,35.5,29.0,30.23,SSW,197,0.0,0.0,77,0.00,,,0.00,VWS V14.01,2013-02-10 12:40:00,
2013-02-10 07:45:00,35.6,29.4,30.22,SSW,197,0.0,2.0,78,0.00,,,0.00,VWS V14.01,2013-02-10 12:45:00,
2013-02-10 07:50:00,35.7,29.5,30.22,SSW,197,0.0,0.0,78,0.00,,,0.00,VWS V14.01,2013-02-10 12:50:00,
2013-02-10 07:55:00,35.7,29.5,30.22,SSW,197,0.0,0.0,78,0.00,,,0.00,VWS V14.01,2013-02-10 12:55:00,
2013-02-10 08:00:00,35.8,29.6,30.23,WSW,251,2.0,2.0,78,0.00,,,0.00,VWS V14.01,2013-02-10 13:00:00,
2013-02-10 08:05:00,35.9,29.7,30.23,West,271,0.0,3.0,78,0.00,,,0.00,VWS V14.01,2013-02-10 13:05:00,
2013-02-10 08:10:00,36.0,29.2,30.23,West,271,0.0,2.0,76,0.00,,,0.00,VWS V14.01,2013-02-10 13:10:00,
2013-02-10 08:15:00,36.1,29.0,30.23,NNW,338,2.0,3.0,75,0.00,,,0.00,VWS V14.01,2013-02-10 13:15:00,
2013-02-10 08:20:00,36.3,29.1,30.23,NNW,338,1.0,2.0,75,0.00,,,0.00,VWS V14.01,2013-02-10 13:20:00,
2013-02-10 08:25:00,36.6,29.8,30.23,NNW,338,0.0,0.0,76,0.00,,,0.00,VWS V14.01,2013-02-10 13:25:00,
2013-02-10 08:30:00,36.8,30.3,30.23,NE,46,2.0,2.0,77,0.00,,,0.00,VWS V14.01,2013-02-10 13:30:00,
2013-02-10 08:35:00,36.9,30.0,30.22,ENE,71,2.0,3.0,76,0.00,,,0.00,VWS V14.01,2013-02-10 13:35:00,
2013-02-10 08:40:00,37.0,30.1,30.23,ENE,71,1.0,2.0,76,0.00,,,0.00,VWS V14.01,2013-02-10 13:40:00,
2013-02-10 08:45:00,37.1,30.2,30.23,ESE,104,0.0,3.0,76,0.00,,,0.00,VWS V14.01,2013-02-10 13:45:00,
2013-02-10 08:50:00,37.3,30.1,30.23,ESE,104,0.0,0.0,75,0.00,,,0.00,VWS V14.01,2013-02-10 13:50:00,
2013-02-10 08:55:00,37.4,29.9,30.23,ESE,104,0.0,0.0,74,0.00,,,0.00,VWS V14.01,2013-02-10 13:55:00,
2013-02-10 09:00:00,37.6,29.7,30.23,ESE,109,0.0,0.0,73,0.00,,,0.00,VWS V14.01,2013-02-10 14:00:00,
2013-02-10 09:05:00,37.9,30.4,30.23,West,272,3.0,4.0,74,0.00,,,0.00,VWS V14.01,2013-02-10 14:05:00,
2013-02-10 09:10:00,38.3,30.1,30.23,SSW,194,0.0,0.0,72,0.00,,,0.00,VWS V14.01,2013-02-10 14:10:00,
2013-02-10 09:15:00,38.5,30.3,30.23,SW,225,0.0,1.0,72,0.00,,,0.00,VWS V14.01,2013-02-10 14:15:00,
2013-02-10 09:20:00,38.8,30.6,30.23,SW,232,2.0,3.0,72,0.00,,,0.00,VWS V14.01,2013-02-10 14:20:00,
2013-02-10 09:25:00,39.0,30.4,30.23,NW,311,3.0,3.0,71,0.00,,,0.00,VWS V14.01,2013-02-10 14:25:00,
2013-02-10 09:30:00,39.3,30.7,30.23,NW,306,1.0,2.0,71,0.00,,,0.00,VWS V14.01,2013-02-10 14:30:00,
2013-02-10 09:35:00,39.7,30.4,30.23,South,185,0.0,1.0,69,0.00,,,0.00,VWS V14.01,2013-02-10 14:35:00,
2013-02-10 09:40:00,40.0,30.3,30.23,West,265,0.0,3.0,68,0.00,,,0.00,VWS V14.01,2013-02-10 14:40:00,
2013-02-10 09:45:00,40.3,30.6,30.23,ESE,102,1.0,2.0,68,0.00,,,0.00,VWS V14.01,2013-02-10 14:45:00,
2013-02-10 09:50:00,40.6,30.9,30.23,NNE,22,0.0,1.0,68,0.00,,,0.00,VWS V14.01,2013-02-10 14:50:00,
2013-02-10 09:55:00,40.9,30.4,30.23,NNE,22,0.0,0.0,66,0.00,,,0.00,VWS V14.01,2013-02-10 14:55:00,
2013-02-10 10:00:00,41.2,30.7,30.23,NNE,22,0.0,0.0,66,0.00,,,0.00,VWS V14.01,2013-02-10 15:00:00,
2013-02-10 10:05:00,41.5,30.2,30.23,NW,304,1.0,2.0,64,0.00,,,0.00,VWS V14.01,2013-02-10 15:05:00,
2013-02-10 10:10:00,41.8,30.1,30.23,NNW,342,0.0,2.0,63,0.00,,,0.00,VWS V14.01,2013-02-10 15:10:00,
2013-02-10 10:15:00,42.0,30.3,30.22,North,0,0.0,3.0,63,0.00,,,0.00,VWS V14.01,2013-02-10 15:15:00,
2013-02-10 10:20:00,42.2,30.9,30.22,NE,49,1.0,1.0,64,0.00,,,0.00,VWS V14.01,2013-02-10 15:20:00,
2013-02-10 10:25:00,42.4,31.1,30.22,ENE,62,1.0,1.0,64,0.00,,,0.00,VWS V14.01,2013-02-10 15:25:00,
2013-02-10 10:30:00,42.6,30.5,30.22,ENE,62,2.0,3.0,62,0.00,,,0.00,VWS V14.01,2013-02-10 15:30:00,
2013-02-10 10:35:00,42.7,30.6,30.22,NE,42,2.0,2.0,62,0.00,,,0.00,VWS V14.01,2013-02-10 15:35:00,
2013-02-10 10:40:00,42.8,29.9,30.22,NE,42,0.0,1.0,60,0.00,,,0.00,VWS V14.01,2013-02-10 15:40:00,
2013-02-10 10:45:00,43.0,30.5,30.22,ENE,71,1.0,1.0,61,0.00,,,0.00,VWS V14.01,2013-02-10 15:45:00,
2013-02-10 10:50:00,43.3,31.2,30.22,NE,48,0.0,2.0,62,0.00,,,0.00,VWS V14.01,2013-02-10 15:50:00,
2013-02-10 10:55:00,43.8,31.6,30.22,NE,45,0.0,1.0,62,0.00,,,0.00,VWS V14.01,2013-02-10 15:55:00,
2013-02-10 11:00:00,44.3,32.1,30.21,ESE,106,0.0,1.0,62,0.00,,,0.00,VWS V14.01,2013-02-10 16:00:00,
2013-02-10 11:05:00,44.9,32.3,30.21,NE,53,1.0,1.0,61,0.00,,,0.00,VWS V14.01,2013-02-10 16:05:00,
2013-02-10 11:10:00,45.6,32.5,30.20,NE,39,0.0,2.0,60,0.00,,,0.00,VWS V14.01,2013-02-10 16:10:00,
2013-02-10 11:15:00,46.2,32.7,30.19,NE,50,0.0,2.0,59,0.00,,,0.00,VWS V14.01,2013-02-10 16:15:00,
2013-02-10 11:20:00,46.6,33.0,30.18,ENE,69,0.0,0.0,59,0.00,,,0.00,VWS V14.01,2013-02-10 16:20:00,
2013-02-10 11:25:00,47.5,33.0,30.19,ENE,69,2.0,4.0,57,0.00,,,0.00,VWS V14.01,2013-02-10 16:25:00,
2013-02-10 11:30:00,48.2,32.8,30.18,NE,44,1.0,2.0,55,0.00,,,0.00,VWS V14.01,2013-02-10 16:30:00,
2013-02-10 11:35:00,48.9,33.0,30.19,North,5,0.0,2.0,54,0.00,,,0.00,VWS V14.01,2013-02-10 16:35:00,
2013-02-10 11:40:00,49.3,32.4,30.19,NE,41,1.0,3.0,52,0.00,,,0.00,VWS V14.01,2013-02-10 16:40:00,
2013-02-10 11:45:00,49.8,33.4,30.19,North,0,2.0,2.0,53,0.00,,,0.00,VWS V14.01,2013-02-10 16:45:00,
2013-02-10 11:50:00,50.1,32.7,30.19,NNW,346,0.0,2.0,51,0.00,,,0.00,VWS V14.01,2013-02-10 16:50:00,
2013-02-10 11:55:00,50.5,32.1,30.19,NNE,17,0.0,0.0,49,0.00,,,0.00,VWS V14.01,2013-02-10 16:55:00,
2013-02-10 12:00:00,50.9,31.9,30.18,ENE,60,1.0,3.0,48,0.00,,,0.00,VWS V14.01,2013-02-10 17:00:00,
2013-02-10 12:05:00,51.3,31.8,30.18,East,96,1.0,3.0,47,0.00,,,0.00,VWS V14.01,2013-02-10 17:05:00,
2013-02-10 12:10:00,51.8,32.8,30.17,SE,144,1.0,5.0,48,0.00,,,0.00,VWS V14.01,2013-02-10 17:10:00,
2013-02-10 12:15:00,52.3,33.7,30.16,East,89,3.0,5.0,49,0.00,,,0.00,VWS V14.01,2013-02-10 17:15:00,
2013-02-10 12:20:00,52.5,33.4,30.15,ENE,58,2.0,3.0,48,0.00,,,0.00,VWS V14.01,2013-02-10 17:20:00,
2013-02-10 12:25:00,52.8,33.7,30.14,ENE,72,1.0,2.0,48,0.00,,,0.00,VWS V14.01,2013-02-10 17:25:00,
2013-02-10 12:30:00,53.3,33.1,30.14,NE,52,0.0,3.0,46,0.00,,,0.00,VWS V14.01,2013-02-10 17:30:00,
2013-02-10 12:35:00,53.6,31.7,30.13,NE,46,3.0,3.0,43,0.00,,,0.00,VWS V14.01,2013-02-10 17:35:00,
2013-02-10 12:40:00,54.3,31.7,30.12,ENE,62,2.0,5.0,42,0.00,,,0.00,VWS V14.01,2013-02-10 17:40:00,
2013-02-10 12:45:00,54.8,30.3,30.11,ESE,106,3.0,5.0,39,0.00,,,0.00,VWS V14.01,2013-02-10 17:45:00,
2013-02-10 12:50:00,55.4,31.5,30.11,NNE,17,0.0,5.0,40,0.00,,,0.00,VWS V14.01,2013-02-10 17:50:00,
2013-02-10 12:55:00,56.2,33.4,30.12,West,273,0.0,3.0,42,0.00,,,0.00,VWS V14.01,2013-02-10 17:55:00,
2013-02-10 13:01:00,56.9,32.2,30.11,NE,49,0.0,2.0,39,0.00,,,0.00,VWS V14.01,2013-02-10 18:01:00,
2013-02-10 13:06:00,57.3,29.9,30.10,NNW,348,0.0,4.0,35,0.00,,,0.00,VWS V14.01,2013-02-10 18:06:00,
2013-02-10 13:11:00,57.6,31.5,30.10,North,349,0.0,1.0,37,0.00,,,0.00,VWS V14.01,2013-02-10 18:11:00,
2013-02-10 13:16:00,58.1,32.0,30.10,NW,321,5.0,5.0,37,0.00,,,0.00,VWS V14.01,2013-02-10 18:16:00,
2013-02-10 13:21:00,58.7,29.7,30.10,ENE,78,5.0,7.0,33,0.00,,,0.00,VWS V14.01,2013-02-10 18:21:00,
2013-02-10 13:26:00,59.1,30.0,30.09,West,274,1.0,1.0,33,0.00,,,0.00,VWS V14.01,2013-02-10 18:26:00,
2013-02-10 13:31:00,59.3,31.0,30.10,South,169,3.0,6.0,34,0.00,,,0.00,VWS V14.01,2013-02-10 18:31:00,
2013-02-10 13:36:00,59.6,30.5,30.10,SE,129,2.0,5.0,33,0.00,,,0.00,VWS V14.01,2013-02-10 18:36:00,
2013-02-10 13:41:00,59.7,29.8,30.10,East,84,3.0,6.0,32,0.00,,,0.00,VWS V14.01,2013-02-10 18:41:00,
2013-02-10 13:46:00,59.8,29.1,30.10,SSW,211,7.0,8.0,31,0.00,,,0.00,VWS V14.01,2013-02-10 18:46:00,
2013-02-10 13:51:00,60.0,28.5,30.10,SSE,158,4.0,10.0,30,0.00,,,0.00,VWS V14.01,2013-02-10 18:51:00,
2013-02-10 13:56:00,60.2,27.0,30.09,SE,140,7.0,14.0,28,0.00,,,0.00,VWS V14.01,2013-02-10 18:56:00,
2013-02-10 14:01:00,60.3,26.2,30.08,ESE,120,8.0,16.0,27,0.00,,,0.00,VWS V14.01,2013-02-10 19:01:00,
2013-02-10 14:06:00,60.6,27.3,30.08,SSW,195,11.0,12.0,28,0.00,,,0.00,VWS V14.01,2013-02-10 19:06:00,
2013-02-10 14:11:00,60.8,26.6,30.08,SSE,160,10.0,12.0,27,0.00,,,0.00,VWS V14.01,2013-02-10 19:11:00,
2013-02-10 14:16:00,60.7,26.5,30.07,SW,232,6.0,13.0,27,0.00,,,0.00,VWS V14.01,2013-02-10 19:16:00,
2013-02-10 14:21:00,60.6,26.5,30.06,SSW,207,4.0,16.0,27,0.00,,,0.00,VWS V14.01,2013-02-10 19:21:00,
2013-02-10 14:26:00,60.4,26.3,30.06,SW,221,6.0,13.0,27,0.00,,,0.00,VWS V14.01,2013-02-10 19:26:00,
2013-02-10 14:31:00,60.2,26.1,30.07,South,173,1.0,9.0,27,0.00,,,0.00,VWS V14.01,2013-02-10 19:31:00,
2013-02-10 14:36:00,60.1,26.0,30.06,WSW,238,2.0,13.0,27,0.00,,,0.00,VWS V14.01,2013-02-10 19:36:00,
2013-02-10 14:41:00,59.9,27.6,30.07,SSW,195,2.0,6.0,29,0.00,,,0.00,VWS V14.01,2013-02-10 19:41:00,
2013-02-10 14:46:00,59.8,25.8,30.07,South,180,7.0,10.0,27,0.00,,,0.00,VWS V14.01,2013-02-10 19:46:00,
2013-02-10 14:51:00,59.7,25.7,30.07,South,177,6.0,10.0,27,0.00,,,0.00,VWS V14.01,2013-02-10 19:51:00,
2013-02-10 14:56:00,59.5,25.5,30.07,South,183,2.0,8.0,27,0.00,,,0.00,VWS V14.01,2013-02-10 19:56:00,
2013-02-10 15:01:00,59.4,25.4,30.07,SSE,164,10.0,10.0,27,0.00,,,0.00,VWS V14.01,2013-02-10 20:01:00,
2013-02-10 15:06:00,59.4,25.4,30.07,South,173,6.0,8.0,27,0.00,,,0.00,VWS V14.01,2013-02-10 20:06:00,
2013-02-10 15:11:00,59.3,25.4,30.07,SSE,167,0.0,10.0,27,0.00,,,0.00,VWS V14.01,2013-02-10 20:11:00,
2013-02-10 15:16:00,59.2,25.3,30.06,South,174,4.0,14.0,27,0.00,,,0.00,VWS V14.01,2013-02-10 20:16:00,
2013-02-10 15:21:00,59.1,25.2,30.07,SSE,160,2.0,7.0,27,0.00,,,0.00,VWS V14.01,2013-02-10 20:21:00,
2013-02-10 15:26:00,59.0,26.8,30.07,SSE,166,2.0,9.0,29,0.00,,,0.00,VWS V14.01,2013-02-10 20:26:00,
2013-02-10 15:31:00,58.9,26.7,30.07,SSW,203,2.0,12.0,29,0.00,,,0.00,VWS V14.01,2013-02-10 20:31:00,
2013-02-10 15:36:00,58.7,27.4,30.06,SSE,148,8.0,13.0,30,0.00,,,0.00,VWS V14.01,2013-02-10 20:36:00,
2013-02-10 15:41:00,58.7,26.5,30.06,SE,137,3.0,13.0,29,0.00,,,0.00,VWS V14.01,2013-02-10 20:41:00,
2013-02-10 15:46:00,58.5,28.8,30.06,SE,144,4.0,10.0,32,0.00,,,0.00,VWS V14.01,2013-02-10 20:46:00,
2013-02-10 15:51:00,58.4,29.4,30.05,SE,141,2.0,4.0,33,0.00,,,0.00,VWS V14.01,2013-02-10 20:51:00,
2013-02-10 15:56:00,58.0,29.8,30.05,SSE,160,5.0,14.0,34,0.00,,,0.00,VWS V14.01,2013-02-10 20:56:00,
2013-02-10 16:01:00,57.7,31.0,30.05,SE,136,2.0,5.0,36,0.00,,,0.00,VWS V14.01,2013-02-10 21:01:00,
2013-02-10 16:06:00,57.4,31.4,30.05,SSE,148,5.0,10.0,37,0.00,,,0.00,VWS V14.01,2013-02-10 21:06:00,
2013-02-10 16:11:00,57.1,31.8,30.05,South,182,0.0,6.0,38,0.00,,,0.00,VWS V14.01,2013-02-10 21:11:00,
2013-02-10 16:16:00,56.8,32.8,30.06,South,172,4.0,5.0,40,0.00,,,0.00,VWS V14.01,2013-02-10 21:16:00,
2013-02-10 16:21:00,56.5,33.7,30.06,South,186,0.0,5.0,42,0.00,,,0.00,VWS V14.01,2013-02-10 21:21:00,
2013-02-10 16:26:00,56.2,34.0,30.06,South,183,5.0,9.0,43,0.00,,,0.00,VWS V14.01,2013-02-10 21:26:00,
2013-02-10 16:31:00,55.9,34.9,30.06,SSW,212,2.0,13.0,45,0.00,,,0.00,VWS V14.01,2013-02-10 21:31:00,
2013-02-10 16:36:00,55.6,35.7,30.05,South,185,2.0,5.0,47,0.00,,,0.00,VWS V14.01,2013-02-10 21:36:00,
2013-02-10 16:41:00,55.3,36.5,30.07,SSE,159,4.0,9.0,49,0.00,,,0.00,VWS V14.01,2013-02-10 21:41:00,
2013-02-10 16:46:00,55.0,37.2,30.07,South,170,2.0,6.0,51,0.00,,,0.00,VWS V14.01,2013-02-10 21:46:00,
2013-02-10 16:51:00,54.8,38.0,30.06,South,178,4.0,12.0,53,0.00,,,0.00,VWS V14.01,2013-02-10 21:51:00,
2013-02-10 16:56:00,54.4,38.1,30.06,SE,133,11.0,13.0,54,0.00,,,0.00,VWS V14.01,2013-02-10 21:56:00,
2013-02-10 17:01:00,54.0,40.0,30.06,SE,145,4.0,10.0,59,0.00,,,0.00,VWS V14.01,2013-02-10 22:01:00,
2013-02-10 17:06:00,53.4,40.7,30.06,SSE,167,3.0,13.0,62,0.00,,,0.00,VWS V14.01,2013-02-10 22:06:00,
2013-02-10 17:11:00,52.7,40.1,30.07,SW,235,1.0,8.0,62,0.00,,,0.00,VWS V14.01,2013-02-10 22:11:00,
2013-02-10 17:16:00,52.1,41.9,30.07,SW,224,2.0,6.0,68,0.00,,,0.00,VWS V14.01,2013-02-10 22:16:00,
2013-02-10 17:21:00,51.5,41.3,30.08,SW,228,6.0,8.0,68,0.00,,,0.00,VWS V14.01,2013-02-10 22:21:00,
2013-02-10 17:26:00,50.9,41.5,30.08,SW,229,4.0,6.0,70,0.00,,,0.00,VWS V14.01,2013-02-10 22:26:00,
2013-02-10 17:31:00,50.4,41.7,30.08,SW,226,4.0,8.0,72,0.00,,,0.00,VWS V14.01,2013-02-10 22:31:00,
2013-02-10 17:36:00,50.1,41.4,30.07,WSW,239,3.0,6.0,72,0.00,,,0.00,VWS V14.01,2013-02-10 22:36:00,
2013-02-10 17:41:00,49.9,41.6,30.07,SSW,202,6.0,8.0,73,0.00,,,0.00,VWS V14.01,2013-02-10 22:41:00,
2013-02-10 17:46:00,49.7,41.8,30.07,South,185,3.0,3.0,74,0.00,,,0.00,VWS V14.01,2013-02-10 22:46:00,
2013-02-10 17:51:00,49.6,42.0,30.06,SSE,161,1.0,3.0,75,0.00,,,0.00,VWS V14.01,2013-02-10 22:51:00,
2013-02-10 17:56:00,49.5,42.3,30.06,SSW,202,1.0,1.0,76,0.00,,,0.00,VWS V14.01,2013-02-10 22:56:00,
2013-02-10 18:01:00,49.3,42.1,30.06,South,177,0.0,2.0,76,0.00,,,0.00,VWS V14.01,2013-02-10 23:01:00,
2013-02-10 18:06:00,49.1,42.2,30.07,SSE,168,0.0,1.0,77,0.00,,,0.00,VWS V14.01,2013-02-10 23:06:00,
2013-02-10 18:11:00,49.0,42.1,30.08,SSE,168,0.0,0.0,77,0.00,,,0.00,VWS V14.01,2013-02-10 23:11:00,
2013-02-10 18:16:00,48.7,42.5,30.08,SSE,168,1.0,2.0,79,0.00,,,0.00,VWS V14.01,2013-02-10 23:16:00,
2013-02-10 18:21:00,48.6,42.4,30.08,SSE,168,0.0,1.0,79,0.00,,,0.00,VWS V14.01,2013-02-10 23:21:00,
2013-02-10 18:26:00,48.4,42.8,30.08,East,101,5.0,6.0,81,0.00,,,0.00,VWS V14.01,2013-02-10 23:26:00,
2013-02-10 18:31:00,48.3,42.8,30.08,ESE,119,1.0,2.0,81,0.00,,,0.00,VWS V14.01,2013-02-10 23:31:00,
2013-02-10 18:36:00,48.1,42.5,30.08,East,96,0.0,0.0,81,0.00,,,0.00,VWS V14.01,2013-02-10 23:36:00,
2013-02-10 18:41:00,47.9,42.7,30.07,East,96,1.0,2.0,82,0.00,,,0.00,VWS V14.01,2013-02-10 23:41:00,
2013-02-10 18:46:00,47.8,42.6,30.07,NW,307,1.0,3.0,82,0.00,,,0.00,VWS V14.01,2013-02-10 23:46:00,
2013-02-10 18:51:00,47.7,42.8,30.06,ENE,64,2.0,2.0,83,0.00,,,0.00,VWS V14.01,2013-02-10 23:51:00,
2013-02-10 18:56:00,47.6,42.7,30.04,ENE,77,1.0,6.0,83,0.00,,,0.00,VWS V14.01,2013-02-10 23:56:00,
2013-02-10 19:01:00,47.4,42.5,30.06,SSE,161,3.0,3.0,83,0.00,,,0.00,VWS V14.01,2013-02-11 00:01:00,
2013-02-10 19:06:00,47.3,42.4,30.06,South,178,0.0,0.0,83,0.00,,,0.00,VWS V14.01,2013-02-11 00:06:00,
2013-02-10 19:11:00,47.1,42.2,30.05,NW,313,2.0,2.0,83,0.00,,,0.00,VWS V14.01,2013-02-11 00:11:00,
2013-02-10 19:16:00,47.1,42.5,30.06,WNW,284,2.0,4.0,84,0.00,,,0.00,VWS V14.01,2013-02-11 00:16:00,
2013-02-10 19:21:00,47.0,42.4,30.06,WNW,284,0.0,0.0,84,0.00,,,0.00,VWS V14.01,2013-02-11 00:21:00,
2013-02-10 19:26:00,46.9,42.3,30.06,NNW,341,0.0,0.0,84,0.00,,,0.00,VWS V14.01,2013-02-11 00:26:00,
2013-02-10 19:31:00,46.9,42.3,30.03,NNW,341,1.0,2.0,84,0.00,,,0.00,VWS V14.01,2013-02-11 00:31:00,
2013-02-10 19:36:00,46.8,42.5,29.99,ESE,118,3.0,5.0,85,0.00,,,0.00,VWS V14.01,2013-02-11 00:36:00,
2013-02-10 19:41:00,46.9,42.6,29.98,ESE,123,5.0,6.0,85,0.00,,,0.00,VWS V14.01,2013-02-11 00:41:00,
2013-02-10 19:46:00,47.4,42.8,29.99,South,187,6.0,7.0,84,0.00,,,0.00,VWS V14.01,2013-02-11 00:46:00,
2013-02-10 19:51:00,48.6,44.0,30.01,WNW,287,6.0,9.0,84,0.00,,,0.00,VWS V14.01,2013-02-11 00:51:00,
2013-02-10 19:56:00,49.2,43.6,30.03,WNW,282,10.0,10.0,81,0.00,,,0.00,VWS V14.01,2013-02-11 00:56:00,
2013-02-10 20:01:00,49.7,43.8,30.03,WNW,294,6.0,14.0,80,0.00,,,0.00,VWS V14.01,2013-02-11 01:01:00,
2013-02-10 20:06:00,49.7,43.5,30.03,WNW,297,10.0,15.0,79,0.00,,,0.00,VWS V14.01,2013-02-11 01:06:00,
2013-02-10 20:11:00,48.9,42.7,30.04,WNW,299,2.0,9.0,79,0.00,,,0.00,VWS V14.01,2013-02-11 01:11:00,
2013-02-10 20:16:00,48.4,42.5,30.03,WNW,287,3.0,3.0,80,0.00,,,0.00,VWS V14.01,2013-02-11 01:16:00,
2013-02-10 20:21:00,48.1,42.5,30.03,WNW,300,5.0,6.0,81,0.00,,,0.00,VWS V14.01,2013-02-11 01:21:00,
2013-02-10 20:26:00,47.9,42.4,30.02,WNW,296,8.0,8.0,81,0.00,,,0.00,VWS V14.01,2013-02-11 01:26:00,
2013-02-10 20:31:00,47.9,42.7,30.01,NE,51,0.0,3.0,82,0.00,,,0.00,VWS V14.01,2013-02-11 01:31:00,
2013-02-10 20:36:00,47.8,42.6,30.01,North,8,0.0,2.0,82,0.00,,,0.00,VWS V14.01,2013-02-11 01:36:00,
2013-02-10 20:41:00,47.8,42.6,30.02,WNW,283,3.0,5.0,82,0.00,,,0.00,VWS V14.01,2013-02-11 01:41:00,
2013-02-10 20:46:00,47.7,42.5,30.02,NW,304,4.0,6.0,82,0.00,,,0.00,VWS V14.01,2013-02-11 01:46:00,
2013-02-10 20:51:00,47.6,42.7,30.03,NW,324,3.0,8.0,83,0.00,,,0.00,VWS V14.01,2013-02-11 01:51:00,
2013-02-10 20:56:00,47.6,42.7,30.03,NNW,338,3.0,5.0,83,0.00,,,0.00,VWS V14.01,2013-02-11 01:56:00,
2013-02-10 21:01:00,47.6,42.4,30.02,NW,322,3.0,5.0,82,0.00,,,0.00,VWS V14.01,2013-02-11 02:01:00,
2013-02-10 21:06:00,47.6,42.4,30.01,NNW,335,5.0,11.0,82,0.00,,,0.00,VWS V14.01,2013-02-11 02:06:00,
2013-02-10 21:11:00,47.4,42.5,30.01,WNW,297,5.0,7.0,83,0.00,,,0.00,VWS V14.01,2013-02-11 02:11:00,
2013-02-10 21:16:00,47.3,42.4,30.02,WNW,289,0.0,2.0,83,0.00,,,0.00,VWS V14.01,2013-02-11 02:16:00,
2013-02-10 21:21:00,47.3,42.4,30.01,North,349,2.0,4.0,83,0.00,,,0.00,VWS V14.01,2013-02-11 02:21:00,
2013-02-10 21:26:00,47.2,42.3,30.01,WNW,303,5.0,5.0,83,0.00,,,0.00,VWS V14.01,2013-02-11 02:26:00,
2013-02-10 21:31:00,47.1,42.2,30.01,NE,43,1.0,4.0,83,0.00,,,0.00,VWS V14.01,2013-02-11 02:31:00,
2013-02-10 21:36:00,47.1,42.2,30.02,NNW,336,3.0,4.0,83,0.00,,,0.00,VWS V14.01,2013-02-11 02:36:00,
2013-02-10 21:41:00,47.1,42.2,30.01,NW,319,0.0,1.0,83,0.00,,,0.00,VWS V14.01,2013-02-11 02:41:00,
2013-02-10 21:46:00,46.9,42.0,30.01,WNW,286,3.0,3.0,83,0.00,,,0.00,VWS V14.01,2013-02-11 02:46:00,
2013-02-10 21:51:00,46.8,41.9,30.01,WNW,286,0.0,0.0,83,0.00,,,0.00,VWS V14.01,2013-02-11 02:51:00,
2013-02-10 21:56:00,46.7,41.8,30.01,NE,56,1.0,2.0,83,0.00,,,0.00,VWS V14.01,2013-02-11 02:56:00,
2013-02-10 22:01:00,46.7,41.8,30.00,ENE,58,1.0,2.0,83,0.00,,,0.00,VWS V14.01,2013-02-11 03:01:00,
2013-02-10 22:06:00,46.6,41.7,30.01,ENE,58,2.0,2.0,83,0.00,,,0.00,VWS V14.01,2013-02-11 03:06:00,
2013-02-10 22:11:00,46.4,41.5,30.00,NNE,14,2.0,2.0,83,0.00,,,0.00,VWS V14.01,2013-02-11 03:11:00,
2013-02-10 22:16:00,46.3,41.4,30.00,NE,46,0.0,2.0,83,0.00,,,0.00,VWS V14.01,2013-02-11 03:16:00,
2013-02-10 22:21:00,46.3,41.7,29.99,North,355,4.0,5.0,84,0.00,,,0.00,VWS V14.01,2013-02-11 03:21:00,
2013-02-10 22:26:00,46.3,41.7,29.99,NW,310,0.0,3.0,84,0.00,,,0.00,VWS V14.01,2013-02-11 03:26:00,
2013-02-10 22:31:00,46.3,41.7,29.99,West,271,0.0,2.0,84,0.00,,,0.00,VWS V14.01,2013-02-11 03:31:00,
2013-02-10 22:36:00,46.3,41.7,29.99,NW,309,5.0,6.0,84,0.00,,,0.00,VWS V14.01,2013-02-11 03:36:00,
2013-02-10 22:41:00,46.4,41.8,29.99,NE,36,0.0,3.0,84,0.00,,,0.00,VWS V14.01,2013-02-11 03:41:00,
2013-02-10 22:46:00,46.3,41.7,29.99,ESE,119,0.0,3.0,84,0.00,,,0.00,VWS V14.01,2013-02-11 03:46:00,
2013-02-10 22:51:00,46.4,41.8,29.99,ENE,65,0.0,2.0,84,0.00,,,0.00,VWS V14.01,2013-02-11 03:51:00,
2013-02-10 22:56:00,46.3,41.7,29.99,ENE,60,1.0,2.0,84,0.00,,,0.00,VWS V14.01,2013-02-11 03:56:00,
2013-02-10 23:01:00,46.4,41.8,29.98,ENE,60,0.0,0.0,84,0.00,,,0.00,VWS V14.01,2013-02-11 04:01:00,
2013-02-10 23:06:00,46.3,41.7,29.98,East,90,0.0,1.0,84,0.00,,,0.00,VWS V14.01,2013-02-11 04:06:00,
2013-02-10 23:11:00,46.4,41.8,29.97,North,358,1.0,4.0,84,0.00,,,0.00,VWS V14.01,2013-02-11 04:11:00,
2013-02-10 23:16:00,46.4,41.8,29.97,NNW,344,2.0,7.0,84,0.00,,,0.00,VWS V14.01,2013-02-11 04:16:00,
2013-02-10 23:21:00,46.5,42.2,29.97,NNW,336,0.0,4.0,85,0.00,,,0.00,VWS V14.01,2013-02-11 04:21:00,
2013-02-10 23:26:00,46.4,42.1,29.98,NW,318,1.0,4.0,85,0.00,,,0.00,VWS V14.01,2013-02-11 04:26:00,
2013-02-10 23:31:00,46.4,42.1,29.98,NW,311,3.0,5.0,85,0.00,,,0.00,VWS V14.01,2013-02-11 04:31:00,
2013-02-10 23:36:00,46.4,42.1,29.97,North,0,1.0,3.0,85,0.00,,,0.00,VWS V14.01,2013-02-11 04:36:00,
2013-02-10 23:41:00,46.4,42.1,29.98,North,354,1.0,3.0,85,0.00,,,0.00,VWS V14.01,2013-02-11 04:41:00,
2013-02-10 23:46:00,46.4,42.1,29.98,NNW,337,2.0,3.0,85,0.00,,,0.00,VWS V14.01,2013-02-11 04:46:00,
2013-02-10 23:51:00,46.4,42.1,29.98,NNW,341,4.0,5.0,85,0.00,,,0.00,VWS V14.01,2013-02-11 04:51:00,
2013-02-10 23:56:00,46.3,42.0,29.98,NW,309,1.0,4.0,85,0.00,,,0.00,VWS V14.01,2013-02-11 04:56:00,